Time,TemperatureF,DewpointF,PressureIn,WindDirection,WindDirectionDegrees,WindSpeedMPH,WindSpeedGustMPH,Humidity,HourlyPrecipIn,Conditions,Clouds,dailyrainin,SoftwareType,DateUTC
2013-01-13 00:00:00,37.6,33.4,29.86,North,0,4.0,7.8,85,0.00,,,0.00,WUHU21623XXSP,2013-01-13 05:00:00,
2013-01-13 00:01:00,37.6,33.4,29.86,North,0,5.1,7.8,85,0.00,,,0.00,WUHU21623XXSP,2013-01-13 05:01:00,
2013-01-13 00:02:00,37.4,33.3,29.86,North,0,2.5,7.8,85,0.00,,,0.00,WUHU21623XXSP,2013-01-13 05:02:00,
2013-01-13 00:07:00,37.2,33.1,29.86,North,0,3.8,6.5,85,0.00,,,0.00,WUHU21623XXSP,2013-01-13 05:07:00,
2013-01-13 00:12:00,37.2,33.1,29.85,NNE,22,5.8,9.6,85,0.00,,,0.00,WUHU21623XXSP,2013-01-13 05:12:00,
2013-01-13 00:17:00,36.9,32.7,29.85,NNE,22,5.8,9.6,85,0.00,,,0.00,WUHU21623XXSP,2013-01-13 05:17:00,
2013-01-13 00:22:00,36.7,32.5,29.84,North,0,2.9,8.1,85,0.00,,,0.00,WUHU21623XXSP,2013-01-13 05:22:00,
2013-01-13 00:27:00,36.5,32.4,29.84,NNE,22,2.0,7.6,85,0.00,,,0.00,WUHU21623XXSP,2013-01-13 05:27:00,
2013-01-13 00:32:00,36.3,32.2,29.84,North,0,3.1,8.3,85,0.00,,,0.00,WUHU21623XXSP,2013-01-13 05:32:00,
2013-01-13 00:37:00,36.3,32.2,29.84,NNW,337,0.0,8.3,85,0.00,,,0.00,WUHU21623XXSP,2013-01-13 05:37:00,
2013-01-13 00:42:00,36.3,32.2,29.84,North,0,7.6,7.6,85,0.00,,,0.00,WUHU21623XXSP,2013-01-13 05:42:00,
2013-01-13 00:47:00,36.1,32.0,29.83,North,0,2.2,7.6,85,0.00,,,0.00,WUHU21623XXSP,2013-01-13 05:47:00,
2013-01-13 00:52:00,36.1,32.3,29.83,North,0,5.1,7.6,86,0.00,,,0.00,WUHU21623XXSP,2013-01-13 05:52:00,
2013-01-13 00:57:00,36.1,32.3,29.83,NNE,22,3.8,7.6,86,0.00,,,0.00,WUHU21623XXSP,2013-01-13 05:57:00,
2013-01-13 01:02:00,36.0,32.1,29.81,NNE,22,1.6,7.2,86,0.00,,,0.00,WUHU21623XXSP,2013-01-13 06:02:00,
2013-01-13 01:07:00,36.0,32.1,29.81,NE,45,3.8,11.0,86,0.00,,,0.00,WUHU21623XXSP,2013-01-13 06:07:00,
2013-01-13 01:12:00,35.8,31.9,29.82,NNE,22,0.0,11.0,86,0.00,,,0.00,WUHU21623XXSP,2013-01-13 06:12:00,
2013-01-13 01:17:00,35.8,31.9,29.82,NNE,22,2.9,6.7,86,0.00,,,0.00,WUHU21623XXSP,2013-01-13 06:17:00,
2013-01-13 01:22:00,35.8,31.9,29.82,North,0,2.5,7.2,86,0.00,,,0.00,WUHU21623XXSP,2013-01-13 06:22:00,
2013-01-13 01:27:00,35.8,31.9,29.83,NE,45,0.0,7.2,86,0.00,,,0.00,WUHU21623XXSP,2013-01-13 06:27:00,
2013-01-13 01:32:00,35.8,31.9,29.83,NE,45,1.8,5.8,86,0.00,,,0.00,WUHU21623XXSP,2013-01-13 06:32:00,
2013-01-13 01:37:00,35.8,31.9,29.83,North,0,2.7,5.4,86,0.00,,,0.00,WUHU21623XXSP,2013-01-13 06:37:00,
2013-01-13 01:42:00,35.4,31.6,29.83,North,0,3.4,5.6,86,0.00,,,0.00,WUHU21623XXSP,2013-01-13 06:42:00,
2013-01-13 01:47:00,35.4,31.6,29.83,NNE,22,1.3,5.8,86,0.00,,,0.00,WUHU21623XXSP,2013-01-13 06:47:00,
2013-01-13 01:52:00,35.4,31.6,29.83,NNE,22,0.0,5.8,86,0.00,,,0.00,WUHU21623XXSP,2013-01-13 06:52:00,
2013-01-13 01:57:00,35.4,31.6,29.84,NNE,22,0.0,3.6,86,0.00,,,0.00,WUHU21623XXSP,2013-01-13 06:57:00,
2013-01-13 02:02:00,35.4,31.6,29.85,NNE,22,1.3,3.1,86,0.00,,,0.00,WUHU21623XXSP,2013-01-13 07:02:00,
2013-01-13 02:07:00,35.4,31.6,29.85,NNE,22,0.9,2.0,86,0.00,,,0.00,WUHU21623XXSP,2013-01-13 07:07:00,
2013-01-13 02:12:00,35.2,31.4,29.85,North,0,1.3,2.9,86,0.00,,,0.00,WUHU21623XXSP,2013-01-13 07:12:00,
2013-01-13 02:17:00,35.2,31.4,29.85,North,0,2.0,3.6,86,0.00,,,0.00,WUHU21623XXSP,2013-01-13 07:17:00,
2013-01-13 02:22:00,35.2,31.4,29.85,North,0,1.3,3.6,86,0.00,,,0.00,WUHU21623XXSP,2013-01-13 07:22:00,
2013-01-13 02:27:00,35.2,31.4,29.84,NE,45,0.0,5.1,86,0.00,,,0.00,WUHU21623XXSP,2013-01-13 07:27:00,
2013-01-13 02:32:00,35.2,31.4,29.85,North,0,1.6,5.1,86,0.00,,,0.00,WUHU21623XXSP,2013-01-13 07:32:00,
2013-01-13 02:37:00,35.2,31.4,29.86,NNE,22,3.6,3.6,86,0.00,,,0.00,WUHU21623XXSP,2013-01-13 07:37:00,
2013-01-13 02:42:00,35.1,31.2,29.86,North,0,0.0,5.4,86,0.00,,,0.00,WUHU21623XXSP,2013-01-13 07:42:00,
2013-01-13 02:47:00,34.9,31.0,29.86,NNE,22,0.9,5.4,86,0.00,,,0.00,WUHU21623XXSP,2013-01-13 07:47:00,
2013-01-13 02:52:00,34.9,31.0,29.86,NE,45,3.8,7.8,86,0.00,,,0.00,WUHU21623XXSP,2013-01-13 07:52:00,
2013-01-13 02:57:00,34.9,31.0,29.87,NNE,22,2.5,7.8,86,0.00,,,0.00,WUHU21623XXSP,2013-01-13 07:57:00,
2013-01-13 03:02:00,34.7,30.8,29.87,North,0,2.0,5.8,86,0.00,,,0.00,WUHU21623XXSP,2013-01-13 08:02:00,
2013-01-13 03:07:00,34.7,30.8,29.87,NNW,337,2.7,5.8,86,0.00,,,0.00,WUHU21623XXSP,2013-01-13 08:07:00,
2013-01-13 03:12:00,34.5,30.7,29.89,North,0,1.1,5.8,86,0.00,,,0.00,WUHU21623XXSP,2013-01-13 08:12:00,
2013-01-13 03:17:00,34.3,30.5,29.89,North,0,0.0,5.8,86,0.00,,,0.00,WUHU21623XXSP,2013-01-13 08:17:00,
2013-01-13 03:22:00,34.3,30.5,29.88,NNE,22,4.5,5.1,86,0.00,,,0.00,WUHU21623XXSP,2013-01-13 08:22:00,
2013-01-13 03:27:00,34.3,30.5,29.89,North,0,4.3,5.1,86,0.00,,,0.00,WUHU21623XXSP,2013-01-13 08:27:00,
2013-01-13 03:32:00,34.3,30.5,29.87,NE,45,2.0,5.6,86,0.00,,,0.00,WUHU21623XXSP,2013-01-13 08:32:00,
2013-01-13 03:37:00,34.2,30.3,29.86,NNE,22,0.9,5.6,86,0.00,,,0.00,WUHU21623XXSP,2013-01-13 08:37:00,
2013-01-13 03:42:00,34.0,30.1,29.84,NE,45,1.1,5.4,86,0.00,,,0.00,WUHU21623XXSP,2013-01-13 08:42:00,
2013-01-13 03:47:00,34.0,30.4,29.85,NNE,22,2.2,5.6,87,0.00,,,0.00,WUHU21623XXSP,2013-01-13 08:47:00,
2013-01-13 03:52:00,33.8,30.2,29.85,NNE,22,2.7,5.6,87,0.00,,,0.00,WUHU21623XXSP,2013-01-13 08:52:00,
2013-01-13 03:57:00,33.8,30.2,29.85,NE,45,0.0,5.6,87,0.00,,,0.00,WUHU21623XXSP,2013-01-13 08:57:00,
2013-01-13 04:02:00,33.8,30.2,29.84,North,0,2.9,7.8,87,0.00,,,0.00,WUHU21623XXSP,2013-01-13 09:02:00,
2013-01-13 04:07:00,33.8,30.2,29.85,NNE,22,2.5,7.8,87,0.00,,,0.00,WUHU21623XXSP,2013-01-13 09:07:00,
2013-01-13 04:12:00,34.0,30.4,29.85,NNE,22,4.9,5.4,87,0.00,,,0.00,WUHU21623XXSP,2013-01-13 09:12:00,
2013-01-13 04:17:00,34.0,30.4,29.85,North,0,4.5,5.4,87,0.00,,,0.00,WUHU21623XXSP,2013-01-13 09:17:00,
2013-01-13 04:22:00,34.0,30.4,29.85,NNE,22,1.1,4.7,87,0.00,,,0.00,WUHU21623XXSP,2013-01-13 09:22:00,
2013-01-13 04:27:00,34.0,30.4,29.86,North,0,0.0,4.7,87,0.00,,,0.00,WUHU21623XXSP,2013-01-13 09:27:00,
2013-01-13 04:32:00,34.2,30.6,29.86,NNE,22,0.0,2.2,87,0.00,,,0.00,WUHU21623XXSP,2013-01-13 09:32:00,
2013-01-13 04:37:00,34.2,30.6,29.85,North,0,0.0,2.2,87,0.00,,,0.00,WUHU21623XXSP,2013-01-13 09:37:00,
2013-01-13 04:42:00,34.2,30.6,29.84,NE,45,0.0,3.1,87,0.00,,,0.00,WUHU21623XXSP,2013-01-13 09:42:00,
2013-01-13 04:47:00,34.3,30.8,29.85,NNE,22,0.0,3.1,87,0.00,,,0.00,WUHU21623XXSP,2013-01-13 09:47:00,
2013-01-13 04:52:00,34.3,30.8,29.85,NE,45,0.0,0.9,87,0.00,,,0.00,WUHU21623XXSP,2013-01-13 09:52:00,
2013-01-13 04:57:00,34.3,30.8,29.85,NNE,22,0.0,2.9,87,0.00,,,0.00,WUHU21623XXSP,2013-01-13 09:57:00,
2013-01-13 05:02:00,34.3,30.8,29.84,NNE,22,0.9,2.9,87,0.00,,,0.00,WUHU21623XXSP,2013-01-13 10:02:00,
2013-01-13 05:07:00,34.3,30.8,29.84,NE,45,0.0,1.1,87,0.00,,,0.00,WUHU21623XXSP,2013-01-13 10:07:00,
2013-01-13 05:12:00,34.3,30.8,29.84,NW,315,1.6,1.6,87,0.00,,,0.00,WUHU21623XXSP,2013-01-13 10:12:00,
2013-01-13 05:17:00,34.3,30.8,29.84,NW,315,0.0,2.0,87,0.00,,,0.00,WUHU21623XXSP,2013-01-13 10:17:00,
2013-01-13 05:22:00,34.3,30.8,29.85,NW,315,1.6,2.0,87,0.00,,,0.00,WUHU21623XXSP,2013-01-13 10:22:00,
2013-01-13 05:27:00,34.3,30.8,29.84,North,0,0.0,2.0,87,0.00,,,0.00,WUHU21623XXSP,2013-01-13 10:27:00,
2013-01-13 05:32:00,34.3,30.8,29.84,NNE,22,0.0,2.0,87,0.00,,,0.00,WUHU21623XXSP,2013-01-13 10:32:00,
2013-01-13 05:37:00,34.3,30.8,29.83,NNE,22,0.0,1.6,87,0.00,,,0.00,WUHU21623XXSP,2013-01-13 10:37:00,
2013-01-13 05:42:00,34.3,30.8,29.83,NNE,22,0.0,3.6,87,0.00,,,0.00,WUHU21623XXSP,2013-01-13 10:42:00,
2013-01-13 05:47:00,34.3,30.8,29.83,NE,45,0.0,3.6,87,0.00,,,0.00,WUHU21623XXSP,2013-01-13 10:47:00,
2013-01-13 05:52:00,34.3,31.1,29.84,NE,45,0.0,0.0,88,0.00,,,0.00,WUHU21623XXSP,2013-01-13 10:52:00,
2013-01-13 05:57:00,34.3,31.1,29.83,NE,45,0.0,0.0,88,0.00,,,0.00,WUHU21623XXSP,2013-01-13 10:57:00,
2013-01-13 06:02:00,34.3,31.1,29.83,NNE,22,0.0,0.0,88,0.00,,,0.00,WUHU21623XXSP,2013-01-13 11:02:00,
2013-01-13 06:07:00,34.3,31.1,29.82,NE,45,0.0,1.1,88,0.00,,,0.00,WUHU21623XXSP,2013-01-13 11:07:00,
2013-01-13 06:12:00,34.3,31.1,29.83,NE,45,0.0,1.1,88,0.00,,,0.00,WUHU21623XXSP,2013-01-13 11:12:00,
2013-01-13 06:17:00,34.3,31.1,29.83,NE,45,0.0,0.0,88,0.00,,,0.00,WUHU21623XXSP,2013-01-13 11:17:00,
2013-01-13 06:22:00,34.3,31.1,29.83,NNE,22,0.0,2.9,88,0.00,,,0.00,WUHU21623XXSP,2013-01-13 11:22:00,
2013-01-13 06:27:00,34.3,31.1,29.83,NE,45,0.0,2.9,88,0.00,,,0.00,WUHU21623XXSP,2013-01-13 11:27:00,
2013-01-13 06:32:00,34.3,31.1,29.83,NE,45,0.0,0.0,88,0.00,,,0.00,WUHU21623XXSP,2013-01-13 11:32:00,
2013-01-13 06:37:00,34.5,31.2,29.83,NE,45,0.0,0.0,88,0.00,,,0.00,WUHU21623XXSP,2013-01-13 11:37:00,
2013-01-13 06:42:00,34.7,31.4,29.84,NNE,22,0.0,0.0,88,0.00,,,0.00,WUHU21623XXSP,2013-01-13 11:42:00,
2013-01-13 06:47:00,34.7,31.4,29.85,NNE,22,0.0,0.0,88,0.00,,,0.00,WUHU21623XXSP,2013-01-13 11:47:00,
2013-01-13 06:52:00,34.7,31.4,29.86,West,270,0.0,1.1,88,0.00,,,0.00,WUHU21623XXSP,2013-01-13 11:52:00,
2013-01-13 06:57:00,34.7,31.4,29.85,NW,315,0.0,1.6,88,0.00,,,0.00,WUHU21623XXSP,2013-01-13 11:57:00,
2013-01-13 07:02:00,34.7,31.4,29.86,WSW,247,0.0,2.2,88,0.00,,,0.00,WUHU21623XXSP,2013-01-13 12:02:00,
2013-01-13 07:07:00,34.7,31.4,29.87,West,270,0.0,2.2,88,0.00,,,0.00,WUHU21623XXSP,2013-01-13 12:07:00,
2013-01-13 07:12:00,34.7,31.4,29.88,NW,315,0.0,1.6,88,0.00,,,0.00,WUHU21623XXSP,2013-01-13 12:12:00,
2013-01-13 07:17:00,34.7,31.4,29.89,WSW,247,0.0,1.8,88,0.00,,,0.00,WUHU21623XXSP,2013-01-13 12:17:00,
2013-01-13 07:22:00,34.7,31.4,29.89,WSW,247,1.6,1.8,88,0.00,,,0.00,WUHU21623XXSP,2013-01-13 12:22:00,
2013-01-13 07:27:00,34.7,31.4,29.89,WNW,292,0.0,1.8,88,0.00,,,0.00,WUHU21623XXSP,2013-01-13 12:27:00,
2013-01-13 07:32:00,34.7,31.4,29.89,WNW,292,0.0,2.5,88,0.00,,,0.00,WUHU21623XXSP,2013-01-13 12:32:00,
2013-01-13 07:37:00,34.5,31.2,29.89,WNW,292,0.0,2.5,88,0.00,,,0.00,WUHU21623XXSP,2013-01-13 12:37:00,
2013-01-13 07:42:00,34.7,31.4,29.90,WNW,292,0.0,1.6,88,0.00,,,0.00,WUHU21623XXSP,2013-01-13 12:42:00,
2013-01-13 07:47:00,34.7,31.4,29.90,NW,315,0.0,1.6,88,0.00,,,0.00,WUHU21623XXSP,2013-01-13 12:47:00,
2013-01-13 07:52:00,34.7,31.4,29.91,NW,315,0.0,1.8,88,0.00,,,0.00,WUHU21623XXSP,2013-01-13 12:52:00,
2013-01-13 07:57:00,34.9,31.4,29.90,NW,315,0.0,1.8,88,0.00,,,0.00,WUHU21623XXSP,2013-01-13 12:57:00,
2013-01-13 08:02:00,34.9,31.6,29.89,NW,315,0.0,0.9,88,0.00,,,0.00,WUHU21623XXSP,2013-01-13 13:02:00,
2013-01-13 08:07:00,34.9,31.6,29.89,NW,315,0.0,0.9,88,0.00,,,0.00,WUHU21623XXSP,2013-01-13 13:07:00,
2013-01-13 08:12:00,34.9,31.6,29.89,NW,315,0.0,0.9,88,0.00,,,0.00,WUHU21623XXSP,2013-01-13 13:12:00,
2013-01-13 08:17:00,34.9,31.6,29.89,NW,315,0.0,2.2,88,0.00,,,0.00,WUHU21623XXSP,2013-01-13 13:17:00,
2013-01-13 08:22:00,34.9,31.6,29.90,WNW,292,0.0,2.5,88,0.00,,,0.00,WUHU21623XXSP,2013-01-13 13:22:00,
2013-01-13 08:27:00,34.9,31.6,29.89,NW,315,0.0,2.5,88,0.00,,,0.00,WUHU21623XXSP,2013-01-13 13:27:00,
2013-01-13 08:32:00,34.9,31.6,29.89,North,0,0.0,1.1,88,0.00,,,0.00,WUHU21623XXSP,2013-01-13 13:32:00,
2013-01-13 08:37:00,34.9,31.9,29.91,NNW,337,0.0,1.3,89,0.00,,,0.00,WUHU21623XXSP,2013-01-13 13:37:00,
2013-01-13 08:42:00,34.9,31.9,29.90,NW,315,0.0,1.3,89,0.00,,,0.00,WUHU21623XXSP,2013-01-13 13:42:00,
2013-01-13 08:47:00,34.9,31.9,29.91,WSW,247,0.9,1.6,89,0.00,,,0.00,WUHU21623XXSP,2013-01-13 13:47:00,
2013-01-13 08:52:00,34.9,31.9,29.92,WNW,292,0.0,2.2,89,0.00,,,0.00,WUHU21623XXSP,2013-01-13 13:52:00,
2013-01-13 08:57:00,34.9,31.9,29.91,NNW,337,0.0,2.2,89,0.00,,,0.00,WUHU21623XXSP,2013-01-13 13:57:00,
2013-01-13 09:02:00,34.9,31.9,29.91,NW,315,0.0,1.6,89,0.00,,,0.00,WUHU21623XXSP,2013-01-13 14:02:00,
2013-01-13 09:07:00,35.2,32.3,29.92,West,270,2.9,2.9,89,0.00,,,0.00,WUHU21623XXSP,2013-01-13 14:07:00,
2013-01-13 09:12:00,35.2,32.3,29.93,NW,315,0.0,2.9,89,0.00,,,0.00,WUHU21623XXSP,2013-01-13 14:12:00,
2013-01-13 09:17:00,35.2,32.3,29.91,NNW,337,0.0,2.9,89,0.00,,,0.00,WUHU21623XXSP,2013-01-13 14:17:00,
2013-01-13 09:22:00,35.2,32.3,29.93,WSW,247,0.0,2.5,89,0.00,,,0.00,WUHU21623XXSP,2013-01-13 14:22:00,
2013-01-13 09:27:00,35.2,32.3,29.93,NE,45,1.6,2.7,89,0.00,,,0.00,WUHU21623XXSP,2013-01-13 14:27:00,
2013-01-13 09:32:00,35.2,32.3,29.93,West,270,0.0,2.7,89,0.00,,,0.00,WUHU21623XXSP,2013-01-13 14:32:00,
2013-01-13 09:37:00,35.2,32.3,29.92,North,0,0.0,6.7,89,0.00,,,0.00,WUHU21623XXSP,2013-01-13 14:37:00,
2013-01-13 09:42:00,35.2,32.3,29.92,NW,315,3.6,6.7,89,0.00,,,0.00,WUHU21623XXSP,2013-01-13 14:42:00,
2013-01-13 09:47:00,35.1,32.1,29.92,NNE,22,1.3,5.4,89,0.00,,,0.00,WUHU21623XXSP,2013-01-13 14:47:00,
2013-01-13 09:52:00,34.9,31.9,29.93,North,0,0.7,5.4,89,0.00,,,0.00,WUHU21623XXSP,2013-01-13 14:52:00,
2013-01-13 09:57:00,34.9,31.6,29.92,North,0,1.6,4.0,88,0.00,,,0.00,WUHU21623XXSP,2013-01-13 14:57:00,
2013-01-13 10:02:00,34.7,31.4,29.93,NNW,337,0.0,5.6,88,0.00,,,0.00,WUHU21623XXSP,2013-01-13 15:02:00,
2013-01-13 10:07:00,34.3,31.1,29.93,NNW,337,2.0,5.6,88,0.00,,,0.00,WUHU21623XXSP,2013-01-13 15:07:00,
2013-01-13 10:12:00,34.3,31.1,29.93,NNW,337,1.3,4.0,88,0.00,,,0.00,WUHU21623XXSP,2013-01-13 15:12:00,
2013-01-13 10:17:00,34.3,31.1,29.93,NNW,337,3.8,5.8,88,0.00,,,0.00,WUHU21623XXSP,2013-01-13 15:17:00,
2013-01-13 10:22:00,34.2,30.9,29.94,NNE,22,2.2,6.9,88,0.00,,,0.00,WUHU21623XXSP,2013-01-13 15:22:00,
2013-01-13 10:27:00,33.8,30.5,29.96,NNW,337,0.0,6.9,88,0.00,,,0.00,WUHU21623XXSP,2013-01-13 15:27:00,
2013-01-13 10:32:00,33.8,30.5,29.96,North,0,2.0,5.1,88,0.00,,,0.00,WUHU21623XXSP,2013-01-13 15:32:00,
2013-01-13 10:37:00,33.8,30.5,29.96,North,0,6.0,6.0,88,0.00,,,0.00,WUHU21623XXSP,2013-01-13 15:37:00,
2013-01-13 10:42:00,33.6,30.4,29.96,NW,315,2.2,6.0,88,0.00,,,0.00,WUHU21623XXSP,2013-01-13 15:42:00,
2013-01-13 10:47:00,33.4,30.2,29.94,NNE,22,0.0,6.5,88,0.00,,,0.00,WUHU21623XXSP,2013-01-13 15:47:00,
2013-01-13 10:52:00,33.6,30.4,29.92,NNE,22,2.9,6.5,88,0.00,,,0.00,WUHU21623XXSP,2013-01-13 15:52:00,
2013-01-13 10:57:00,33.4,30.2,29.93,NE,45,3.1,4.3,88,0.00,,,0.00,WUHU21623XXSP,2013-01-13 15:57:00,
2013-01-13 11:02:00,33.3,29.8,29.84,NE,45,1.8,9.6,87,0.00,,,0.00,WUHU21623XXSP,2013-01-13 16:02:00,
2013-01-13 11:07:00,33.1,29.9,29.89,NW,315,3.4,9.6,88,0.00,,,0.00,WUHU21623XXSP,2013-01-13 16:07:00,
2013-01-13 11:12:00,33.1,29.9,29.92,NNE,22,2.9,7.4,88,0.00,,,0.00,WUHU21623XXSP,2013-01-13 16:12:00,
2013-01-13 11:17:00,33.1,29.9,29.94,NE,45,0.0,7.4,88,0.00,,,0.00,WUHU21623XXSP,2013-01-13 16:17:00,
2013-01-13 11:22:00,32.9,29.4,29.97,WNW,292,0.0,5.8,87,0.00,,,0.00,WUHU21623XXSP,2013-01-13 16:22:00,
2013-01-13 11:27:00,32.9,29.4,29.96,NW,315,4.7,4.9,87,0.00,,,0.00,WUHU21623XXSP,2013-01-13 16:27:00,
2013-01-13 11:32:00,32.7,29.3,29.96,NW,315,2.7,4.7,87,0.00,,,0.00,WUHU21623XXSP,2013-01-13 16:32:00,
2013-01-13 11:37:00,32.7,29.3,29.97,NNE,22,0.0,4.7,87,0.00,,,0.00,WUHU21623XXSP,2013-01-13 16:37:00,
2013-01-13 11:42:00,32.5,29.1,29.97,NNW,337,0.0,4.5,87,0.00,,,0.00,WUHU21623XXSP,2013-01-13 16:42:00,
2013-01-13 11:47:00,32.5,29.1,29.97,WNW,292,0.0,4.5,87,0.00,,,0.00,WUHU21623XXSP,2013-01-13 16:47:00,
2013-01-13 11:52:00,32.4,28.9,29.97,NW,315,0.0,4.5,87,0.00,,,0.00,WUHU21623XXSP,2013-01-13 16:52:00,
2013-01-13 11:57:00,32.4,28.9,29.97,NNW,337,0.0,3.6,87,0.00,,,0.00,WUHU21623XXSP,2013-01-13 16:57:00,
2013-01-13 12:02:00,32.4,28.9,29.96,NW,315,0.0,3.6,87,0.00,,,0.00,WUHU21623XXSP,2013-01-13 17:02:00,
2013-01-13 12:07:00,32.4,28.9,29.95,North,0,3.1,3.1,87,0.00,,,0.00,WUHU21623XXSP,2013-01-13 17:07:00,
2013-01-13 12:12:00,32.4,28.9,29.94,North,0,0.0,3.1,87,0.00,,,0.00,WUHU21623XXSP,2013-01-13 17:12:00,
2013-01-13 12:17:00,32.4,28.9,29.93,NNW,337,0.0,4.5,87,0.00,,,0.00,WUHU21623XXSP,2013-01-13 17:17:00,
2013-01-13 12:22:00,32.4,28.9,29.92,NNW,337,2.0,4.5,87,0.00,,,0.00,WUHU21623XXSP,2013-01-13 17:22:00,
2013-01-13 12:27:00,32.4,28.9,29.93,NNW,337,0.0,4.3,87,0.00,,,0.00,WUHU21623XXSP,2013-01-13 17:27:00,
2013-01-13 12:32:00,32.4,28.9,29.92,NNW,337,0.0,3.4,87,0.00,,,0.00,WUHU21623XXSP,2013-01-13 17:32:00,
2013-01-13 12:37:00,32.5,29.1,29.92,NNW,337,1.8,3.1,87,0.00,,,0.00,WUHU21623XXSP,2013-01-13 17:37:00,
2013-01-13 12:42:00,32.4,28.9,29.93,North,0,2.5,3.8,87,0.00,,,0.00,WUHU21623XXSP,2013-01-13 17:42:00,
2013-01-13 12:47:00,32.5,29.1,29.93,North,0,0.0,4.3,87,0.00,,,0.00,WUHU21623XXSP,2013-01-13 17:47:00,
2013-01-13 12:52:00,32.5,29.1,29.92,North,0,0.0,6.3,87,0.00,,,0.00,WUHU21623XXSP,2013-01-13 17:52:00,
2013-01-13 12:57:00,32.4,28.7,29.92,North,0,0.0,6.3,86,0.00,,,0.00,WUHU21623XXSP,2013-01-13 17:57:00,
2013-01-13 13:02:00,32.4,28.7,29.91,North,0,4.5,7.8,86,0.00,,,0.00,WUHU21623XXSP,2013-01-13 18:02:00,
2013-01-13 13:07:00,32.4,28.7,29.91,North,0,1.8,7.8,86,0.00,,,0.00,WUHU21623XXSP,2013-01-13 18:07:00,
2013-01-13 13:12:00,32.2,28.5,29.90,North,0,2.0,5.4,86,0.00,,,0.00,WUHU21623XXSP,2013-01-13 18:12:00,
2013-01-13 13:17:00,32.2,28.5,29.89,North,0,1.6,4.5,86,0.00,,,0.00,WUHU21623XXSP,2013-01-13 18:17:00,
2013-01-13 13:22:00,32.2,28.5,29.91,North,0,1.6,8.1,86,0.00,,,0.00,WUHU21623XXSP,2013-01-13 18:22:00,
2013-01-13 13:27:00,32.2,28.5,29.90,North,0,2.7,8.1,86,0.00,,,0.00,WUHU21623XXSP,2013-01-13 18:27:00,
2013-01-13 13:32:00,32.2,28.2,29.90,North,0,4.7,5.4,85,0.00,,,0.00,WUHU21623XXSP,2013-01-13 18:32:00,
2013-01-13 13:37:00,31.8,27.9,29.91,North,0,1.3,5.4,85,0.00,,,0.00,WUHU21623XXSP,2013-01-13 18:37:00,
2013-01-13 13:42:00,31.8,28.1,29.93,North,0,2.5,4.5,86,0.00,,,0.00,WUHU21623XXSP,2013-01-13 18:42:00,
2013-01-13 13:47:00,31.8,28.1,29.94,North,0,1.1,5.6,86,0.00,,,0.00,WUHU21623XXSP,2013-01-13 18:47:00,
2013-01-13 13:52:00,31.8,28.1,29.95,North,0,1.6,5.6,86,0.00,,,0.00,WUHU21623XXSP,2013-01-13 18:52:00,
2013-01-13 13:57:00,31.8,28.1,29.95,North,0,1.1,8.1,86,0.00,,,0.00,WUHU21623XXSP,2013-01-13 18:57:00,
2013-01-13 14:02:00,31.6,28.0,29.94,North,0,0.0,8.1,86,0.00,,,0.00,WUHU21623XXSP,2013-01-13 19:02:00,
2013-01-13 14:07:00,31.6,28.0,29.94,North,0,2.9,6.0,86,0.00,,,0.00,WUHU21623XXSP,2013-01-13 19:07:00,
2013-01-13 14:12:00,31.6,28.0,29.93,North,0,2.7,6.0,86,0.00,,,0.00,WUHU21623XXSP,2013-01-13 19:12:00,
2013-01-13 14:17:00,31.6,28.0,29.94,North,0,0.0,7.2,86,0.00,,,0.00,WUHU21623XXSP,2013-01-13 19:17:00,
2013-01-13 14:22:00,31.3,27.6,29.94,North,0,3.8,9.4,86,0.00,,,0.00,WUHU21623XXSP,2013-01-13 19:22:00,
2013-01-13 14:27:00,31.3,27.6,29.93,North,0,3.1,9.4,86,0.00,,,0.00,WUHU21623XXSP,2013-01-13 19:27:00,
2013-01-13 14:32:00,31.3,27.6,29.94,North,0,0.9,6.0,86,0.00,,,0.00,WUHU21623XXSP,2013-01-13 19:32:00,
2013-01-13 14:37:00,31.3,27.6,29.94,North,0,2.9,5.1,86,0.00,,,0.00,WUHU21623XXSP,2013-01-13 19:37:00,
2013-01-13 14:42:00,31.3,27.6,29.93,North,0,0.0,5.1,86,0.00,,,0.00,WUHU21623XXSP,2013-01-13 19:42:00,
2013-01-13 14:47:00,31.3,27.6,29.93,North,0,4.7,6.0,86,0.00,,,0.00,WUHU21623XXSP,2013-01-13 19:47:00,
2013-01-13 14:52:00,31.3,27.9,29.93,North,0,0.9,7.6,87,0.00,,,0.00,WUHU21623XXSP,2013-01-13 19:52:00,
2013-01-13 14:57:00,31.1,27.7,29.93,North,0,2.2,7.6,87,0.00,,,0.00,WUHU21623XXSP,2013-01-13 19:57:00,
2013-01-13 15:02:00,31.3,27.9,29.93,North,0,0.0,5.6,87,0.00,,,0.00,WUHU21623XXSP,2013-01-13 20:02:00,
2013-01-13 15:07:00,31.1,27.7,29.92,North,0,2.9,5.6,87,0.00,,,0.00,WUHU21623XXSP,2013-01-13 20:07:00,
2013-01-13 15:12:00,31.1,27.7,29.93,North,0,1.1,5.6,87,0.00,,,0.00,WUHU21623XXSP,2013-01-13 20:12:00,
2013-01-13 15:17:00,30.9,27.5,29.95,North,0,0.0,4.9,87,0.00,,,0.00,WUHU21623XXSP,2013-01-13 20:17:00,
2013-01-13 15:22:00,31.1,27.7,29.94,North,0,0.0,1.8,87,0.00,,,0.00,WUHU21623XXSP,2013-01-13 20:22:00,
2013-01-13 15:27:00,31.1,27.7,29.95,North,0,1.1,4.5,87,0.00,,,0.00,WUHU21623XXSP,2013-01-13 20:27:00,
2013-01-13 15:32:00,30.9,27.5,29.94,North,0,0.0,4.5,87,0.00,,,0.00,WUHU21623XXSP,2013-01-13 20:32:00,
2013-01-13 15:37:00,30.9,27.5,29.95,North,0,0.0,3.6,87,0.00,,,0.00,WUHU21623XXSP,2013-01-13 20:37:00,
2013-01-13 15:42:00,30.7,27.4,29.96,North,0,0.9,3.6,87,0.00,,,0.00,WUHU21623XXSP,2013-01-13 20:42:00,
2013-01-13 15:47:00,30.7,27.4,29.96,North,0,0.0,3.8,87,0.00,,,0.00,WUHU21623XXSP,2013-01-13 20:47:00,
2013-01-13 15:52:00,30.7,27.1,29.96,North,0,0.0,4.5,86,0.00,,,0.00,WUHU21623XXSP,2013-01-13 20:52:00,
2013-01-13 15:57:00,30.7,27.1,29.96,North,0,0.9,4.5,86,0.00,,,0.00,WUHU21623XXSP,2013-01-13 20:57:00,
2013-01-13 16:02:00,30.7,27.1,29.94,North,0,0.9,2.9,86,0.00,,,0.00,WUHU21623XXSP,2013-01-13 21:02:00,
2013-01-13 16:07:00,30.7,27.1,29.94,North,0,0.0,2.9,86,0.00,,,0.00,WUHU21623XXSP,2013-01-13 21:07:00,
2013-01-13 16:12:00,30.6,26.9,29.94,North,0,1.1,2.2,86,0.00,,,0.00,WUHU21623XXSP,2013-01-13 21:12:00,
2013-01-13 16:17:00,30.6,26.9,29.95,North,0,0.0,3.1,86,0.00,,,0.00,WUHU21623XXSP,2013-01-13 21:17:00,
2013-01-13 16:22:00,30.6,26.9,29.96,North,0,1.8,3.1,86,0.00,,,0.00,WUHU21623XXSP,2013-01-13 21:22:00,
2013-01-13 16:27:00,30.6,26.9,29.95,North,0,1.3,2.9,86,0.00,,,0.00,WUHU21623XXSP,2013-01-13 21:27:00,
2013-01-13 16:32:00,30.6,26.9,29.96,North,0,0.9,3.8,86,0.00,,,0.00,WUHU21623XXSP,2013-01-13 21:32:00,
2013-01-13 16:37:00,30.4,26.7,29.96,North,0,1.3,3.8,86,0.00,,,0.00,WUHU21623XXSP,2013-01-13 21:37:00,
2013-01-13 16:42:00,30.4,26.7,29.95,North,0,0.0,3.4,86,0.00,,,0.00,WUHU21623XXSP,2013-01-13 21:42:00,
2013-01-13 16:47:00,30.4,26.7,29.95,North,0,2.2,3.4,86,0.00,,,0.00,WUHU21623XXSP,2013-01-13 21:47:00,
2013-01-13 16:52:00,30.2,26.5,29.97,North,0,2.2,3.4,86,0.00,,,0.00,WUHU21623XXSP,2013-01-13 21:52:00,
2013-01-13 16:57:00,30.2,26.5,29.97,North,0,0.0,3.4,86,0.00,,,0.00,WUHU21623XXSP,2013-01-13 21:57:00,
2013-01-13 17:02:00,30.2,26.5,29.98,North,0,0.0,4.5,86,0.00,,,0.00,WUHU21623XXSP,2013-01-13 22:02:00,
2013-01-13 17:07:00,30.0,26.3,29.97,North,0,2.0,4.5,86,0.00,,,0.00,WUHU21623XXSP,2013-01-13 22:07:00,
2013-01-13 17:12:00,30.0,26.3,29.97,North,0,2.5,4.5,86,0.00,,,0.00,WUHU21623XXSP,2013-01-13 22:12:00,
2013-01-13 17:17:00,30.0,26.3,29.98,North,0,0.0,4.5,86,0.00,,,0.00,WUHU21623XXSP,2013-01-13 22:17:00,
2013-01-13 17:22:00,30.0,26.3,29.98,North,0,0.0,2.5,86,0.00,,,0.00,WUHU21623XXSP,2013-01-13 22:22:00,
2013-01-13 17:27:00,30.0,26.3,29.97,North,0,0.7,5.1,86,0.00,,,0.00,WUHU21623XXSP,2013-01-13 22:27:00,
2013-01-13 17:32:00,29.8,26.5,29.98,North,0,2.0,5.1,87,0.00,,,0.00,WUHU21623XXSP,2013-01-13 22:32:00,
2013-01-13 17:37:00,29.8,26.2,29.98,North,0,0.0,4.5,86,0.00,,,0.00,WUHU21623XXSP,2013-01-13 22:37:00,
2013-01-13 17:42:00,29.7,26.0,29.98,North,0,1.6,5.4,86,0.00,,,0.00,WUHU21623XXSP,2013-01-13 22:42:00,
2013-01-13 17:47:00,29.5,25.8,29.98,North,0,4.3,5.4,86,0.00,,,0.00,WUHU21623XXSP,2013-01-13 22:47:00,
2013-01-13 17:52:00,29.3,25.6,29.99,North,0,2.5,4.7,86,0.00,,,0.00,WUHU21623XXSP,2013-01-13 22:52:00,
2013-01-13 17:57:00,29.3,25.6,29.99,North,0,0.0,4.7,86,0.00,,,0.00,WUHU21623XXSP,2013-01-13 22:57:00,
2013-01-13 18:02:00,29.1,25.4,29.99,North,0,2.5,8.9,86,0.00,,,0.00,WUHU21623XXSP,2013-01-13 23:02:00,
2013-01-13 18:07:00,29.1,25.2,30.00,North,0,0.0,8.9,85,0.00,,,0.00,WUHU21623XXSP,2013-01-13 23:07:00,
2013-01-13 18:12:00,29.1,25.2,30.00,North,0,0.0,4.3,85,0.00,,,0.00,WUHU21623XXSP,2013-01-13 23:12:00,
2013-01-13 18:17:00,29.1,25.2,30.01,North,0,3.1,6.5,85,0.00,,,0.00,WUHU21623XXSP,2013-01-13 23:17:00,
2013-01-13 18:22:00,28.9,25.0,30.01,North,0,0.7,6.5,85,0.00,,,0.00,WUHU21623XXSP,2013-01-13 23:22:00,
2013-01-13 18:27:00,28.9,24.7,30.01,North,0,4.5,6.9,84,0.00,,,0.00,WUHU21623XXSP,2013-01-13 23:27:00,
2013-01-13 18:32:00,28.8,24.5,30.01,North,0,0.0,6.9,84,0.00,,,0.00,WUHU21623XXSP,2013-01-13 23:32:00,
2013-01-13 18:37:00,28.8,24.5,30.01,North,0,0.7,4.5,84,0.00,,,0.00,WUHU21623XXSP,2013-01-13 23:37:00,
2013-01-13 18:42:00,28.8,24.5,30.01,North,0,0.9,9.2,84,0.00,,,0.00,WUHU21623XXSP,2013-01-13 23:42:00,
2013-01-13 18:47:00,28.8,24.5,30.02,North,0,1.1,9.2,84,0.00,,,0.00,WUHU21623XXSP,2013-01-13 23:47:00,
2013-01-13 18:52:00,28.8,24.5,30.02,North,0,0.0,5.1,84,0.00,,,0.00,WUHU21623XXSP,2013-01-13 23:52:00,
2013-01-13 18:57:00,28.8,24.5,30.02,North,0,0.0,3.8,84,0.00,,,0.00,WUHU21623XXSP,2013-01-13 23:57:00,
2013-01-13 19:02:00,28.8,24.5,30.02,North,0,0.0,6.5,84,0.00,,,0.00,WUHU21623XXSP,2013-01-14 00:02:00,
2013-01-13 19:07:00,28.8,24.5,30.02,North,0,2.5,7.8,84,0.00,,,0.00,WUHU21623XXSP,2013-01-14 00:07:00,
2013-01-13 19:12:00,28.8,24.2,30.02,North,0,0.0,7.8,83,0.00,,,0.00,WUHU21623XXSP,2013-01-14 00:12:00,
2013-01-13 19:17:00,28.8,24.2,30.02,North,0,0.0,7.8,83,0.00,,,0.00,WUHU21623XXSP,2013-01-14 00:17:00,
2013-01-13 19:22:00,28.8,24.2,30.03,North,0,2.7,8.9,83,0.00,,,0.00,WUHU21623XXSP,2013-01-14 00:22:00,
2013-01-13 19:27:00,28.8,23.9,30.03,North,0,0.9,8.9,82,0.00,,,0.00,WUHU21623XXSP,2013-01-14 00:27:00,
2013-01-13 19:32:00,28.6,23.5,30.03,North,0,3.4,8.1,81,0.00,,,0.00,WUHU21623XXSP,2013-01-14 00:32:00,
2013-01-13 19:37:00,28.6,23.5,30.03,North,0,2.5,9.2,81,0.00,,,0.00,WUHU21623XXSP,2013-01-14 00:37:00,
2013-01-13 19:42:00,28.6,23.5,30.04,North,0,1.3,9.2,81,0.00,,,0.00,WUHU21623XXSP,2013-01-14 00:42:00,
2013-01-13 19:47:00,28.6,23.5,30.04,North,0,1.6,7.6,81,0.00,,,0.00,WUHU21623XXSP,2013-01-14 00:47:00,
2013-01-13 19:52:00,28.6,23.5,30.04,North,0,4.3,7.6,81,0.00,,,0.00,WUHU21623XXSP,2013-01-14 00:52:00,
2013-01-13 19:57:00,28.4,23.0,30.04,North,0,2.0,10.7,80,0.00,,,0.00,WUHU21623XXSP,2013-01-14 00:57:00,
2013-01-13 20:02:00,28.2,22.8,30.04,North,0,4.5,10.7,80,0.00,,,0.00,WUHU21623XXSP,2013-01-14 01:02:00,
2013-01-13 20:07:00,28.2,22.8,30.03,North,0,0.0,11.6,80,0.00,,,0.00,WUHU21623XXSP,2013-01-14 01:07:00,
2013-01-13 20:12:00,28.2,22.8,30.04,North,0,2.5,11.6,80,0.00,,,0.00,WUHU21623XXSP,2013-01-14 01:12:00,
2013-01-13 20:17:00,28.0,22.6,30.04,North,0,0.0,7.8,80,0.00,,,0.00,WUHU21623XXSP,2013-01-14 01:17:00,
2013-01-13 20:22:00,28.0,22.6,30.04,North,0,4.9,10.3,80,0.00,,,0.00,WUHU21623XXSP,2013-01-14 01:22:00,
2013-01-13 20:27:00,28.0,22.6,30.05,North,0,8.5,10.3,80,0.00,,,0.00,WUHU21623XXSP,2013-01-14 01:27:00,
2013-01-13 20:32:00,27.9,22.2,30.06,North,0,2.2,9.8,79,0.00,,,0.00,WUHU21623XXSP,2013-01-14 01:32:00,
2013-01-13 20:37:00,27.7,22.0,30.05,North,0,6.7,9.8,79,0.00,,,0.00,WUHU21623XXSP,2013-01-14 01:37:00,
2013-01-13 20:42:00,27.7,21.7,30.05,North,0,2.7,7.8,78,0.00,,,0.00,WUHU21623XXSP,2013-01-14 01:42:00,
2013-01-13 20:47:00,27.5,21.5,30.05,North,0,4.0,10.5,78,0.00,,,0.00,WUHU21623XXSP,2013-01-14 01:47:00,
2013-01-13 20:52:00,27.3,21.3,30.06,North,0,6.0,10.5,78,0.00,,,0.00,WUHU21623XXSP,2013-01-14 01:52:00,
2013-01-13 20:57:00,27.3,21.6,30.07,North,0,2.2,14.5,79,0.00,,,0.00,WUHU21623XXSP,2013-01-14 01:57:00,
2013-01-13 21:02:00,27.1,21.4,30.06,North,0,5.8,14.5,79,0.00,,,0.00,WUHU21623XXSP,2013-01-14 02:02:00,
2013-01-13 21:07:00,27.0,21.3,30.07,North,0,4.3,10.3,79,0.00,,,0.00,WUHU21623XXSP,2013-01-14 02:07:00,
2013-01-13 21:12:00,26.8,21.1,30.08,North,0,4.0,10.3,79,0.00,,,0.00,WUHU21623XXSP,2013-01-14 02:12:00,
2013-01-13 21:17:00,26.6,20.9,30.08,North,0,4.5,13.4,79,0.00,,,0.00,WUHU21623XXSP,2013-01-14 02:17:00,
2013-01-13 21:22:00,26.4,20.4,30.08,North,0,0.7,13.4,78,0.00,,,0.00,WUHU21623XXSP,2013-01-14 02:22:00,
2013-01-13 21:27:00,26.2,20.2,30.08,North,0,2.2,13.0,78,0.00,,,0.00,WUHU21623XXSP,2013-01-14 02:27:00,
2013-01-13 21:32:00,26.1,20.1,30.08,North,0,1.6,10.3,78,0.00,,,0.00,WUHU21623XXSP,2013-01-14 02:32:00,
2013-01-13 21:37:00,25.9,19.6,30.07,North,0,3.1,10.3,77,0.00,,,0.00,WUHU21623XXSP,2013-01-14 02:37:00,
2013-01-13 21:42:00,25.7,19.8,30.08,North,0,6.0,12.5,78,0.00,,,0.00,WUHU21623XXSP,2013-01-14 02:42:00,
2013-01-13 21:47:00,25.5,19.6,30.09,North,0,6.3,12.5,78,0.00,,,0.00,WUHU21623XXSP,2013-01-14 02:47:00,
2013-01-13 21:52:00,25.3,19.1,30.09,North,0,8.1,13.0,77,0.00,,,0.00,WUHU21623XXSP,2013-01-14 02:52:00,
2013-01-13 21:57:00,25.0,18.8,30.09,North,0,7.4,13.6,77,0.00,,,0.00,WUHU21623XXSP,2013-01-14 02:57:00,
2013-01-13 22:02:00,24.6,18.1,30.09,North,0,7.4,13.6,76,0.00,,,0.00,WUHU21623XXSP,2013-01-14 03:02:00,
2013-01-13 22:07:00,24.6,18.4,30.10,North,0,10.7,10.7,77,0.00,,,0.00,WUHU21623XXSP,2013-01-14 03:07:00,
2013-01-13 22:12:00,24.4,17.9,30.09,North,0,3.8,10.7,76,0.00,,,0.00,WUHU21623XXSP,2013-01-14 03:12:00,
2013-01-13 22:16:00,24.1,17.6,30.10,North,0,2.5,9.6,76,0.00,,,0.00,WUHU21623XXSP,2013-01-14 03:16:00,
2013-01-13 22:22:00,24.1,17.9,30.10,North,0,7.8,9.6,77,0.00,,,0.00,WUHU21623XXSP,2013-01-14 03:22:00,
2013-01-13 22:27:00,23.9,17.7,30.10,North,0,10.5,12.8,77,0.00,,,0.00,WUHU21623XXSP,2013-01-14 03:27:00,
2013-01-13 22:32:00,23.7,17.5,30.10,North,0,2.9,12.8,77,0.00,,,0.00,WUHU21623XXSP,2013-01-14 03:32:00,
2013-01-13 22:37:00,23.5,17.4,30.11,North,0,0.0,10.5,77,0.00,,,0.00,WUHU21623XXSP,2013-01-14 03:37:00,
2013-01-13 22:42:00,23.5,17.4,30.11,North,0,2.9,11.9,77,0.00,,,0.00,WUHU21623XXSP,2013-01-14 03:42:00,
2013-01-13 22:47:00,23.4,16.9,30.11,North,0,4.0,11.9,76,0.00,,,0.00,WUHU21623XXSP,2013-01-14 03:47:00,
2013-01-13 22:52:00,23.4,17.2,30.12,North,0,4.7,13.4,77,0.00,,,0.00,WUHU21623XXSP,2013-01-14 03:52:00,
2013-01-13 22:57:00,23.2,17.0,30.12,North,0,1.8,13.4,77,0.00,,,0.00,WUHU21623XXSP,2013-01-14 03:57:00,
2013-01-13 23:02:00,23.2,17.0,30.12,North,0,4.3,10.7,77,0.00,,,0.00,WUHU21623XXSP,2013-01-14 04:02:00,
2013-01-13 23:07:00,23.2,17.0,30.12,North,0,2.7,10.7,77,0.00,,,0.00,WUHU21623XXSP,2013-01-14 04:07:00,
2013-01-13 23:12:00,23.0,17.2,30.13,North,0,6.3,12.5,78,0.00,,,0.00,WUHU21623XXSP,2013-01-14 04:12:00,
2013-01-13 23:17:00,23.0,16.9,30.13,North,0,2.9,12.5,77,0.00,,,0.00,WUHU21623XXSP,2013-01-14 04:17:00,
2013-01-13 23:22:00,22.8,16.7,30.13,North,0,6.9,12.8,77,0.00,,,0.00,WUHU21623XXSP,2013-01-14 04:22:00,
2013-01-13 23:27:00,22.8,16.7,30.13,North,0,2.7,12.8,77,0.00,,,0.00,WUHU21623XXSP,2013-01-14 04:27:00,
2013-01-13 23:32:00,22.8,17.0,30.14,North,0,3.8,10.5,78,0.00,,,0.00,WUHU21623XXSP,2013-01-14 04:32:00,
2013-01-13 23:37:00,22.8,17.3,30.13,North,0,4.0,10.5,79,0.00,,,0.00,WUHU21623XXSP,2013-01-14 04:37:00,
2013-01-13 23:42:00,22.8,17.0,30.14,North,0,2.2,10.5,78,0.00,,,0.00,WUHU21623XXSP,2013-01-14 04:42:00,
2013-01-13 23:47:00,22.8,17.0,30.14,North,0,1.6,10.5,78,0.00,,,0.00,WUHU21623XXSP,2013-01-14 04:47:00,
2013-01-13 23:52:00,22.6,16.8,30.14,North,0,1.8,9.8,78,0.00,,,0.00,WUHU21623XXSP,2013-01-14 04:52:00,
2013-01-13 23:57:00,22.5,16.6,30.14,North,0,5.6,12.8,78,0.00,,,0.00,WUHU21623XXSP,2013-01-14 04:57:00,